Regional Weather Roundup
Issued by NWS

Home | Current Version | Previous Version | Text Only | Print | Product List | Glossary Off
Versions: 1 2 3 4 5 6 7 8 9 10 11 12 13 14 15 16 17 18 19 20 21 22 23 24 25 26 27 28 29 30 31 32 33 34 35 36 37 38 39 40 41 42 43 44 45 46 47 48 49

000
ASUS45 KCYS 060210
RWRWY

WYOMING REGIONAL WEATHER ROUNDUP
NATIONAL WEATHER SERVICE CHEYENNE WY
700 PM MST FRI FEB 05 2016

NOTE:  "FAIR" INDICATES FEW OR NO CLOUDS BELOW 12,000 FEET
WITH NO SIGNIFICANT WEATHER AND/OR OBSTRUCTIONS TO VISIBILITY.

WYZ001-060300-
YELLOWSTONE NATIONAL PARK

CITY           SKY/WX    TMP DP  RH WIND       PRES   REMARKS
LK YELLOWSTONE   N/A     18  13  80 VRB3      30.40R
W YELLOWSTONE  NOT AVBL

$$
WYZ002>013-054>058-071-098>099-060300-
NORTHERN WYOMING

CITY           SKY/WX    TMP DP  RH WIND       PRES   REMARKS
JACKSON        PTCLDY    16  12  86 CALM      30.42R
CODY           FAIR      37  14  38 W18G30    30.19R WCI  27
GREYBULL       FAIR      29  17  61 SE6       30.24S WCI  23
WORLAND        FAIR      28  16  60 S13       30.25R WCI  17
SHERIDAN       CLEAR     28  14  54 S5        30.14S WCI  23
BUFFALO        FAIR      31  10  41 SW5       30.16S WCI  26
GILLETTE       FAIR      28  15  58 SW16      30.16F WCI  16
HULETT         FAIR      32  19  59 SW12      30.16S WCI  23
NEWCASTLE      FAIR      28  18  64 N5        30.21F WCI  23

$$
WYZ014>020-022>026-101>103-060300-
CENTRAL WYOMING

CITY           SKY/WX    TMP DP  RH WIND       PRES   REMARKS
BIG PINEY      FAIR      20  12  71 N13       30.37R WCI   7
PINEDALE       FAIR      19  14  79 W10       30.36R WCI   8
DUBOIS         MOCLDY    27  14  59 NW15G30   30.30R WCI  15
LANDER         FAIR      22  12  65 CALM      30.24R
RIVERTON       FAIR      22   8  55 CALM      30.25R
CASPER         FAIR      23  14  68 SW21      30.25S WCI   8
DOUGLAS        FAIR      17   9  70 N10         N/A  WCI   5

$$
WYZ021-027>030-104>119-060300-
SOUTHERN WYOMING

CITY           SKY/WX    TMP DP  RH WIND       PRES   REMARKS
EVANSTON       CLOUDY    24  17  74 W9        30.44S WCI  14
FORT BRIDGER   CLOUDY    25  19  80 W13       30.46R WCI  13
ROCK SPRINGS   FAIR      22  15  75 W22       30.36S WCI   6
DIXON          CLOUDY    19  11  70 CALM      30.46R
RAWLINS        FAIR      20  12  71 W18G31    30.31S WCI   5
SARATOGA       FAIR      12   5  73 SE3       30.36S
LARAMIE        FAIR      15   4  61 W9        30.25S WCI   3
CHEYENNE       FAIR      23   7  50 W13       30.23S WCI  11
TORRINGTON     FAIR      24  13  62 W7        30.25F WCI  16
PINE BLUFFS    FAIR      21  12  68 W7        30.27S WCI  13

$$



USA.gov is the U.S. government's official web portal to all federal, state and local government web resources and services.